Location: Beetgumermolden
(53.2353°N, 5.7055°E)
Time: 10:27:17
(UTC+00:00)

Daily predictions for brighter satellites

Satellite Brightness Start Highest point End
(mag) Time Altitude Azimuth Time Altitude Azimuth Time Altitude Azimuth
COSMOS 2455 4.5 15:57:28 10° SE 16:00:46 15° ESE 16:04:04 10° ENE
Cosmos 1408 Rocket 3.5 15:57:10 10° N 16:01:30 65° ENE 16:05:51 10° SSE
Cosmos 1340 Rocket 3.1 15:58:00 10° N 16:01:58 49° ENE 16:05:56 10° SSE
Cosmos 1606 2.9 15:58:26 10° S 16:02:05 52° E 16:05:48 10° NNE
USA 308 2.9 15:58:04 10° WSW 16:02:20 87° SSE 16:06:37 10° ENE
CZ-2C R/B 4.4 16:01:48 10° ENE 16:02:27 10° E 16:03:07 10° E
GEOS 3 Rocket 4.5 15:58:52 10° E 16:03:24 31° NNE 16:07:54 10° NW
CZ-4C R/B 3.4 16:00:41 10° NNE 16:04:34 55° E 16:08:12 10° S
ERBS 2.2 16:01:49 10° WSW 16:05:01 84° SSE 16:08:15 10° ENE
MOS 1 Rocket 3.5 16:00:16 10° NNE 16:05:26 90° SW 16:10:12 10° SSW
Cosmos 2360 4.3 16:00:50 10° NNW 16:06:32 60° NE 16:12:11 10° SE
CZ-2C R/B 2.9 16:02:54 10° SSE 16:07:43 64° ENE 16:12:26 10° N
deb Kosmos-1763 3.8 16:04:39 10° SSW 16:08:03 75° ESE 16:11:29 10° NNE
CZ-4B R/B 4.1 16:04:22 10° ESE 16:08:36 24° NE 16:12:48 10° N
NOSS 2-1 (E) 3.0 16:05:48 10° SW 16:09:01 74° NW 16:12:35 10° NE
Cosmos 1500 4.5 16:06:23 10° NNE 16:09:13 20° ENE 16:12:00 10° ESE
Meteor 1-20 Rocket 4.5 16:04:10 10° N 16:09:52 52° ENE 16:15:34 10° SSE
Cosmos 1743 Rocket 3.8 16:05:45 10° N 16:09:56 45° ENE 16:14:06 10° SSE
NOSS 2-2 (C) 4.1 16:05:45 10° NW 16:10:18 59° NE 16:16:37 10° ESE
Lacrosse 5 rocket 1.5 16:06:51 10° WNW 16:10:33 50° N 16:14:28 10° E
Cosmos-2242 4.3 16:07:51 10° SW 16:11:55 41° WNW 16:16:00 10° N
Okean O Rocket 3.0 16:13:55 10° E 16:16:54 18° NE 16:19:54 10° NNE
USA 267 3.8 16:14:02 10° ENE 16:20:17 45° SE 16:26:30 10° SSW
Cosmos 2360 Rocket 3.7 16:18:20 10° NNW 16:22:02 17° NNE 16:25:23 11° ENE
SJ 16-02 3.6 16:19:45 10° NW 16:23:33 29° WSW 16:27:20 10° SSW
H-2A R/B 2.6 16:21:04 10° SE 16:25:39 34° ENE 16:30:10 10° N
Cosmos 1763 Rocket 3.9 16:24:01 10° S 16:28:47 43° ESE 16:33:38 10° NE
USA 305 2.9 16:24:41 10° W 16:28:56 83° N 16:32:46 13° E
Cosmos 1656 4.5 16:23:53 10° NW 16:29:18 57° WSW 16:34:46 10° S
CZ-4B R/B 2.8 16:25:52 10° SSE 16:29:52 90° WSW 16:33:43 10° NNW
USA 229 DEB 4.3 16:27:06 10° NW 16:34:18 73° SW 16:42:01 10° SSE
USA 229 4.2 16:27:11 10° NW 16:34:24 73° SW 16:42:06 10° SSE
Cosmos 1933 4.0 16:31:18 10° SSE 16:34:59 35° E 16:38:40 10° NNE
Cosmos 1937 Rocket 3.5 16:30:22 10° NNW 16:35:43 72° ENE 16:41:02 10° SSE
PSLV R/B 4.1 16:32:36 10° SE 16:36:03 39° ENE 16:39:35 10° N
Cosmos 1464 Rocket 4.1 16:30:43 10° S 16:37:06 88° W 16:43:32 10° N
SL-16 R/B 4.4 16:33:24 10° N 16:38:14 25° NW 16:43:05 10° WSW
Cosmos 1500 Rocket 3.5 16:34:02 10° N 16:38:31 87° E 16:42:56 10° S
Spot 1 4.3 16:33:54 10° NNE 16:38:34 73° ESE 16:43:28 10° S
Cosmos 1666 3.8 16:35:46 10° NNE 16:38:45 22° ENE 16:41:44 10° ESE
Cosmos 1461 4.3 16:36:22 10° W 16:40:00 28° NNW 16:43:20 11° NNE
Nadezhda 4 Rocket 4.2 16:33:52 10° NNW 16:40:13 81° W 16:46:33 10° S
SeaSat 1 3.6 16:36:38 10° NNE 16:41:13 39° NW 16:45:46 10° WSW
NOSS 3-4 (A) 4.4 16:35:47 10° WNW 16:41:28 34° N 16:46:32 15° ENE
SL-24 R/B - RUBIN 2 3.5 16:36:46 10° NW 16:41:28 77° NE 16:45:50 10° SE
NOSS 3-4 (C) 4.5 16:35:52 10° WNW 16:41:33 34° N 16:46:37 15° ENE
Cosmos 2322 Rocket 3.3 16:37:58 10° NNW 16:42:37 25° NE 16:45:58 15° E
ATLAS 2AS CENTAUR R/B 3.7 16:36:47 10° W 16:44:03 41° NNW 16:50:01 14° NE
Cosmos 1697 Rocket 2.9 16:39:23 10° NNW 16:45:02 79° WSW 16:50:39 10° SSE
Cosmos 372 Rocket 4.0 16:41:43 10° NNW 16:46:55 60° ENE 16:52:06 10° SE
FengYun 1-2 T 4.3 16:42:01 10° SSE 16:47:37 83° WSW 16:53:12 10° NNW
Sich 1 3.1 16:44:01 10° N 16:48:15 55° ENE 16:52:28 10° SSE
Cosmos 1271 Rocket 4.5 16:45:32 10° SW 16:49:09 33° WNW 16:52:48 10° N
Cosmos 1980 Rocket 2.1 16:43:41 10° NNW 16:49:23 69° NE 16:55:01 10° SE
Cosmos 1805 Rocket 3.4 16:45:55 10° N 16:50:16 71° ENE 16:54:36 10° SSE
NOSS 2-1 (C) 4.1 16:47:18 10° W 16:50:20 35° NNW 16:52:48 15° NNE
NOAA 6 4.0 16:45:50 10° SSE 16:50:58 88° ENE 16:56:09 10° NNW
Cosmos 2369 3.7 16:45:32 10° NNW 16:51:19 84° ENE 16:57:03 10° SSE
Cosmos 2221 3.1 16:49:00 10° SSW 16:53:14 60° WNW 16:57:32 10° N
CZ-4C R/B 2.8 16:49:01 10° NW 16:55:50 76° NE 17:04:02 10° SE
Cosmos 1092 Rocket 4.0 16:49:44 10° N 16:56:09 83° E 17:02:30 10° SSE
USA 234 3.8 16:50:00 10° SE 16:56:28 61° SW 17:02:56 10° WNW
Cosmos 1842 Rocket 4.1 16:53:41 10° SSW 16:58:07 63° WNW 17:02:36 10° N
Cosmos 1428 Rocket 4.4 16:52:43 10° N 16:58:53 78° ENE 17:05:03 10° SSE
NOSS 2-1 (D) 4.2 16:56:44 10° W 16:59:42 31° NNW 17:01:53 17° NNE
SL-16 R/B 2.9 16:55:31 10° NNW 17:00:41 34° NE 17:04:15 18° E
USA 306 2.8 16:56:53 10° W 17:01:10 79° N 17:03:42 24° E
Meteor 1-25 Rocket 4.4 16:56:20 10° NNW 17:01:54 77° W 17:07:29 10° S
Cosmos 1812 3.7 16:58:45 10° SSE 17:02:01 27° E 17:02:43 25° ENE
ISS -2.6 16:58:48 10° W 17:02:02 41° SSW 17:04:58 12° SE
Cosmos 2237 Rocket 4.2 17:00:20 10° NNW 17:02:51 13° N 17:05:11 10° NNE
MOS 1-B Rocket 4.4 16:57:47 10° NNE 17:03:19 42° E 17:09:27 10° SSE
NOSS 2-2 (D) 4.3 16:58:44 10° NW 17:03:35 79° SW 17:10:23 10° SE
deb Chang Zheng 4 3.8 17:02:14 10° SE 17:06:22 46° ENE 17:10:31 10° N
SMAP 3.4 17:02:21 10° S 17:06:59 68° WSW 17:11:40 10° NNW
Cosmos 2082 Rocket 2.8 17:02:39 10° S 17:07:48 37° ESE 17:10:43 22° ENE
Cosmos 1939 Rocket 3.6 17:04:11 10° S 17:08:14 58° W 17:12:17 10° NNW
CORIOLIS 4.4 17:04:34 10° S 17:09:58 76° WSW 17:15:27 10° NNW
Cosmos 44 Rocket 3.4 17:06:01 10° NW 17:10:57 56° NE 17:14:23 18° ESE
Cosmos 2333 Rocket 3.6 17:07:01 10° NNW 17:11:11 20° NNE 17:12:25 19° NE
Meteor 2-16 Rocket 4.4 17:06:40 10° N 17:12:44 59° ENE 17:18:45 10° SSE
Cosmos 2278 3.6 17:09:38 10° NNW 17:15:24 76° ENE 17:21:06 10° SE
Cosmos 1602 4.2 17:11:40 10° NNW 17:15:29 63° W 17:19:18 10° S
CZ-4B DEB 4.4 17:10:50 10° SSE 17:16:21 77° WSW 17:21:53 10° NNW
USA 307 2.8 17:15:37 10° W 17:19:56 80° N 17:21:44 34° E
SL-16 R/B 4.3 17:18:58 10° NW 17:21:42 13° N 17:24:24 10° NNE
Cosmos 540 Rocket 3.4 17:17:38 10° SSW 17:22:42 69° ESE 17:26:07 21° NNE
H-2A R/B 4.1 17:25:03 17° NNE 17:25:03 17° NNE 17:26:21 10° N
Cosmos 2034 Rocket 4.5 17:18:05 10° SSW 17:24:08 60° WNW 17:30:17 10° N
COSMO-SKYMED 1 3.0 17:23:24 33° ENE 17:24:29 39° E 17:28:33 10° SSE
Cosmos 2298 Rocket 4.2 17:20:09 10° NNW 17:25:19 47° NE 17:28:50 19° ESE
ARGOS 3.1 17:21:08 10° SSE 17:26:28 64° ENE 17:31:50 10° N
Cosmos 2279 Rocket 4.0 17:21:45 10° SSE 17:27:46 54° E 17:33:47 10° NNE
Cosmos 2266 Rocket 4.3 17:21:55 10° N 17:28:01 45° ENE 17:34:08 10° SE
COSMOS 2406 3.2 17:22:40 10° SSW 17:28:23 75° ESE 17:32:09 22° NE
Cosmos 1833 Rocket 2.7 17:24:04 10° SSW 17:29:42 88° WNW 17:33:42 20° NNE
Cosmos 1782 2.7 17:27:02 10° S 17:31:01 86° ESE 17:33:48 19° NNE
ATLAS 5 CENTAUR R/B 2.3 17:22:29 10° NW 17:31:42 77° NNE 17:33:07 37° ESE
Cosmos 1814 Rocket 4.3 17:27:23 10° S 17:32:18 43° ESE 17:33:45 35° ENE
Cosmos 1633 Rocket 2.9 17:29:04 10° N 17:33:27 72° ENE 17:37:50 10° SSE
Cosmos 1818 3.5 17:29:26 10° NW 17:34:58 79° NE 17:38:50 20° SE
ATLAS CENTAUR R/B 3.3 17:32:27 10° WNW 17:36:03 23° NNW 17:37:49 19° NNE
Cosmos 2219 Rocket 3.6 17:32:07 10° NNW 17:36:22 21° NNE 17:36:27 21° NNE
Cosmos 468 Rocket 4.3 17:32:15 10° SW 17:37:22 64° WNW 17:41:28 17° NNE
YAOGAN 1 3.1 17:39:35 39° NE 17:39:35 39° NE 17:42:58 10° N
GEOS 3 Rocket 3.5 17:37:58 26° ESE 17:40:58 73° NE 17:46:10 10° NW
ERBS 2.9 17:38:03 10° W 17:41:01 41° NNW 17:41:01 41° NNW
CZ-2D R/B 4.1 17:37:58 10° S 17:41:43 50° W 17:45:27 10° NNW
USA 308 2.8 17:38:04 10° W 17:42:20 83° N 17:43:13 55° E
Meteor 2-6 Rocket 4.4 17:37:08 10° SSE 17:42:38 49° E 17:45:14 28° NE
CZ-2C R/B 2.5 17:40:35 22° NNE 17:43:55 60° E 17:49:01 10° S
SJ-11-01 4.2 17:39:39 10° SSE 17:44:25 86° ENE 17:49:11 10° NNW
Cosmos 1634 Rocket 4.1 17:38:24 10° SSW 17:44:45 82° WNW 17:51:08 10° N
Cosmos 1500 4.3 17:41:23 10° NNW 17:44:58 44° W 17:48:32 10° SSW
COSMOS 2455 2.8 17:39:40 10° SSW 17:45:38 68° ESE 17:48:14 35° NE
CZ-4B R/B 3.3 17:43:18 10° S 17:48:42 75° WSW 17:54:04 10° NNW
SKYMED 3 4.5 17:47:47 50° NE 17:48:43 64° ESE 17:53:02 10° S
Lacrosse 5 rocket 1.3 17:45:57 10° WNW 17:49:50 76° SSW 17:50:36 56° SE
Cosmos 1151 Rocket 2.9 17:45:44 10° S 17:50:03 75° E 17:51:27 42° NNE
Spot 2 4.5 17:46:44 12° SE 17:51:23 59° ENE 17:56:25 10° N
Okean O Rocket 1.6 17:48:15 10° SSE 17:52:43 82° WSW 17:57:13 10° NNW
IRS-1C Rocket 4.4 17:54:34 44° NE 17:54:34 44° NE 17:59:21 10° N
Cosmos 2237 4.4 17:51:22 10° NNW 17:56:57 49° NE 17:57:31 47° ENE
CZ-4 R/B 3.1 17:59:39 21° N 17:59:39 21° N 18:01:08 10° N
Cosmos 1666 Rocket 4.2 17:54:52 10° NNW 17:59:15 57° W 18:03:34 10° S
Meteor 2-15 4.4 17:54:07 10° S 18:00:04 58° E 18:03:28 26° NNE
Meteor 1-11 Rocket 3.6 17:55:47 10° N 18:01:22 63° ENE 18:05:45 17° SSE
Cosmos 2208 Rocket 4.1 17:56:13 10° S 18:01:27 53° ESE 18:01:40 53° E
Cosmos 1470 Rocket 3.4 17:58:03 10° N 18:02:32 83° ENE 18:07:01 10° SSE
Cosmos 2150 Rocket 3.8 17:57:39 10° NNW 18:02:51 78° ENE 18:04:48 39° SE
USA 267 3.2 18:01:03 40° ENE 18:03:43 87° NNW 18:10:16 10° WSW
Meteor 1-10 Rocket 4.3 17:58:53 10° S 18:04:29 54° E 18:04:53 53° E
Cosmos 1655 Rocket 3.9 17:58:04 10° N 18:04:31 78° ENE 18:10:54 10° SSE
H-2A R/B 3.1 18:00:06 10° S 18:05:01 44° W 18:09:50 10° NNW
Landsat 5 4.4 18:08:42 35° S 18:08:42 35° S 18:11:08 10° S
Cosmos 2360 Rocket 2.6 18:02:06 10° NNW 18:07:10 44° NE 18:07:10 44° NE
Cosmos 1328 Rocket 3.4 18:03:09 10° S 18:07:30 80° ESE 18:07:30 80° ESE
USA 305 2.8 18:04:39 10° WNW 18:08:46 82° WSW 18:08:46 82° WSW
SKYMED 2 3.6 18:12:00 61° N 18:12:41 79° WNW 18:17:02 10° SSW
Cosmos 1666 4.1 18:10:57 10° NNW 18:14:26 37° W 18:17:52 10° SSW
Cosmos 2180 Rocket 4.4 18:10:09 10° S 18:16:30 88° E 18:22:49 10° N
Cosmos 841 Rocket 3.8 18:11:48 10° SW 18:16:55 62° WNW 18:18:54 36° N
COSMOS 2428 4.1 18:12:14 10° NNW 18:15:41 24° NNE 18:15:41 24° NNE
Feng Yun 1-1 Rocket 4.4 18:12:14 10° SSE 18:18:10 80° WSW 18:24:03 10° NNW
Meteor 2-8 Rocket 4.4 18:13:55 10° S 18:20:05 90° NNE 18:26:09 11° NNE
ATLAS CENTAUR R/B 2.1 18:13:39 10° WSW 18:20:43 82° WNW 18:20:43 82° WNW
Cosmos 1125 Rocket 3.4 18:15:40 10° NNW 18:20:57 85° WSW 18:22:14 53° SSE
Cosmos 2322 Rocket 2.0 18:21:48 10° NNW 18:27:34 81° ENE 18:27:49 78° E
Cosmos 1980 Rocket 4.2 18:28:18 10° NW 18:32:56 27° WSW 18:37:33 10° SSW
NOSS 3-4 (A) 4.0 18:27:23 10° NW 18:33:46 50° NNE 18:33:58 50° NNE
NOSS 3-4 (C) 4.0 18:27:29 10° NW 18:33:51 50° NNE 18:34:03 50° NNE
ATLAS 2AS CENTAUR R/B 3.4 18:29:38 10° WNW 18:36:44 40° NNE 18:37:27 39° NNE
Cosmos 1812 4.4 18:34:10 10° SW 18:37:40 32° WNW 18:37:47 32° WNW
ISS -0.7 18:36:34 10° WSW 18:37:58 13° SW 18:37:58 13° SW
USA 306 4.1 18:36:50 10° WNW 18:39:42 41° W 18:39:42 41° W
CZ-4C R/B 4.1 18:37:41 10° NW 18:44:20 41° WSW 18:51:57 10° S
SL-16 R/B 2.5 18:39:33 10° NW 18:45:11 64° WSW 18:46:12 54° SSW
Cosmos 2237 Rocket 4.1 18:44:58 10° NNW 18:47:00 17° N 18:47:00 17° N
Cosmos 2082 Rocket 2.8 18:46:13 10° SW 18:51:45 52° NW 18:52:35 48° NNW
Cosmos 2333 Rocket 3.4 18:51:07 10° NNW 18:54:26 33° N 18:54:26 33° N
COSMO-SKYMED 1 4.3 19:00:37 31° WNW 19:00:37 31° WNW 19:04:24 10° SW
SL-16 R/B 4.4 19:04:47 10° NNW 19:06:16 14° N 19:06:16 14° N
Cosmos 1833 Rocket 4.4 19:09:44 10° W 19:14:25 26° NW 19:15:24 25° NNW
ATLAS CENTAUR R/B 4.2 19:12:50 10° NW 19:13:56 15° NNW 19:13:56 15° NNW
Cosmos 2219 Rocket 3.9 19:15:49 10° NNW 19:18:11 25° NNW 19:18:11 25° NNW
CZ-2C R/B 4.4 19:22:07 22° NNW 19:23:55 27° WNW 19:28:12 10° WSW
Lacrosse 5 rocket 4.4 19:25:34 10° W 19:26:12 13° W 19:26:12 13° W
COSMOS 2455 4.0 19:26:22 10° WSW 19:31:24 38° NW 19:31:24 38° NW
USA 267 4.0 19:48:24 47° WNW 19:48:24 47° WNW 19:53:04 10° W
Cosmos 2360 Rocket 4.0 19:46:15 10° NW 19:48:57 27° NW 19:48:57 27° NW
Cosmos 2322 Rocket 4.4 20:06:43 10° NW 20:09:40 20° W 20:09:40 20° W
ATLAS 2AS CENTAUR R/B 4.3 20:21:19 10° NW 20:24:52 30° NW 20:24:52 30° NW
